sat.trackr.live / text

‹ back to catalog

STARLINK-37273

NORAD 68723 · 2026-081AA

PAYLOAD ACTIVE UNKNOWN

§ Identity

Operator
Country
US
Launch date
2026-04-14
Launch site
AFETR
Launch vehicle
Mass (kg)
RCS (m²)

Purposes: comms

External: N2YO · Heavens-Above · Gunter

§ Orbital elements

Epoch: 2026-09-19T11:32:13.089984Z

Period
93.85 min
Inclination
53.1581°
Eccentricity
0.0000569
Mean motion
15.34409901 rev/d
Perigee alt
462.3 km
Apogee alt
463.1 km
Semi-major
6,840.8 km
B*
6.8414e-4
RAAN
210.3706°
Arg perigee
83.7861°
Mean anomaly
276.3206°
Rev number
2,446

§ Raw data

STARLINK-372731 68723U 26081AA  26262.48070706  .00022816  00000+0  68414-3 0  99972 68723  53.1581 210.3706 0000569  83.7861 276.3206 15.34409901 24461

JSON: /api/v1/satellites/68723 · /tle

For live sub-satellite position, see the globe view (requires WebGL).

§ Visibility from observer

Set your observer location to see the next 7 days of passes ≥ 10°. The values pass through the URL so the page stays shareable.

No JS? Fill the form by hand. The geolocation button needs JavaScript.